contact:dominique.lefevre@mio.osupytheas.fr, maurice.libes@osupytheas.fr, didier.mallarino@osupytheas.fr
Project:EMSO http://www.emso-fr.org/EMSO-France
Depth: 2436.0 m
Title:EMSO Ligure Ouest : Data MII capteur AQUADOPP
Date,Latitude,Longitude,X_East,Y_North,Z_Up,Amplitude_X,Amplitude_Y,Amplitude_Z,Batterie,SoundSpeed,Heading,Pitch,Roll,Pressure,TIS,Speed,Direction
, degrees North, degrees East, m.s-1, m.s-1,m.s-1, 1, 1, 1, Volt, m.s-1, degree, degree, degree, dbar, degree_C, m.s-1, degree
2023-07-03T00:04:03,42.805,6.029,0.044,-0.021,0.005,101.0,102.0,101.0,13.4,1505.2,347.8,-0.8,1.8,2471.424,13.28,0.048,115.5
2023-07-03T00:07:03,42.805,6.029,0.043,-0.018,-0.011,101.0,103.0,100.0,13.3,1505.2,349.7,-0.8,1.8,2471.446,13.28,0.046,112.7
2023-07-03T00:10:03,42.805,6.029,0.063,-0.026,-0.018,101.0,103.0,100.0,13.4,1505.2,340.2,-0.7,1.8,2471.39,13.28,0.068,112.4
2023-07-03T00:13:03,42.805,6.029,0.045,-0.013,-0.018,103.0,102.0,100.0,13.3,1505.2,330.5,-0.8,1.8,2471.416,13.28,0.046,106.1
2023-07-03T00:16:03,42.805,6.029,0.067,0.001,-0.006,100.0,102.0,102.0,13.4,1505.2,325.0,-0.8,1.8,2471.416,13.29,0.067,89.1
2023-07-03T00:19:03,42.805,6.029,0.089,-0.032,-0.025,102.0,102.0,101.0,13.4,1505.2,329.5,-0.7,1.8,2471.395,13.29,0.094,109.8
2023-07-03T00:22:03,42.805,6.029,0.024,-0.022,-0.054,102.0,103.0,100.0,13.3,1505.2,328.2,-0.8,1.8,2471.381,13.29,0.032,132.5
2023-07-03T00:25:03,42.805,6.029,0.06,0.0,0.018,102.0,102.0,101.0,13.4,1505.2,330.2,-0.7,1.8,2471.358,13.29,0.06,90.0
2023-07-03T00:28:03,42.805,6.029,0.061,-0.013,-0.014,103.0,102.0,100.0,13.4,1505.2,329.2,-0.8,1.8,2471.363,13.29,0.062,102.0
2023-07-03T00:31:03,42.805,6.029,0.047,-0.012,0.027,102.0,102.0,101.0,13.3,1505.2,343.4,-0.8,1.8,2471.385,13.29,0.048,104.3
2023-07-03T00:34:03,42.805,6.029,0.065,-0.025,0.0,101.0,104.0,101.0,13.4,1505.2,351.2,-0.8,1.8,2471.415,13.29,0.069,111.0
2023-07-03T00:37:03,42.805,6.029,0.055,-0.023,-0.012,101.0,102.0,101.0,13.4,1505.2,343.7,-0.8,1.8,2471.398,13.29,0.059,112.7
2023-07-03T00:40:03,42.805,6.029,0.058,-0.01,0.023,101.0,101.0,102.0,13.4,1505.2,334.4,-0.8,1.8,2471.338,13.29,0.058,99.8
2023-07-03T00:43:03,42.805,6.029,0.067,-0.015,0.004,100.0,102.0,102.0,13.3,1505.2,338.8,-0.8,1.8,2471.381,13.29,0.068,102.6
2023-07-03T00:46:03,42.805,6.029,0.05,-0.01,0.02,103.0,101.0,101.0,13.4,1505.2,336.5,-0.7,1.8,2471.368,13.29,0.05,101.3
2023-07-03T00:49:03,42.805,6.029,0.077,-0.019,0.0,102.0,102.0,101.0,13.4,1505.2,334.7,-0.8,1.8,2471.389,13.29,0.079,103.9
2023-07-03T00:52:03,42.805,6.029,0.036,-0.021,-0.044,102.0,103.0,100.0,13.4,1505.2,330.9,-0.8,1.8,2471.364,13.29,0.041,120.3
2023-07-03T00:55:03,42.805,6.029,0.064,-0.029,-0.01,102.0,101.0,101.0,13.4,1505.2,340.0,-0.8,1.8,2471.341,13.29,0.07,114.4
2023-07-03T00:58:03,42.805,6.029,0.065,-0.033,0.018,102.0,102.0,101.0,13.4,1505.2,349.1,-0.8,1.8,2471.342,13.29,0.072,116.9
2023-07-03T01:04:03,42.805,6.029,0.036,-0.008,-0.024,103.0,103.0,102.0,13.4,1505.2,344.3,-0.7,1.8,2471.401,13.28,0.036,102.5
2023-07-03T01:07:03,42.805,6.029,0.031,-0.026,-0.046,102.0,102.0,101.0,13.3,1505.2,329.8,-0.8,1.8,2471.368,13.28,0.04,130.0
2023-07-03T01:10:03,42.805,6.029,0.03,-0.031,-0.022,102.0,101.0,101.0,13.3,1505.2,350.5,-0.7,1.9,2471.39,13.28,0.043,135.9
2023-07-03T01:13:03,42.805,6.029,0.05,-0.01,-0.023,101.0,101.0,101.0,13.4,1505.2,332.5,-0.8,1.8,2471.39,13.28,0.05,101.3
2023-07-03T01:16:03,42.805,6.029,0.07,-0.03,0.008,103.0,101.0,101.0,13.4,1505.2,343.0,-0.8,1.8,2471.394,13.29,0.076,113.2
2023-07-03T01:19:03,42.805,6.029,0.067,-0.02,0.011,103.0,102.0,101.0,13.3,1505.2,335.8,-0.7,1.8,2471.376,13.29,0.069,106.6
2023-07-03T01:22:03,42.805,6.029,0.092,-0.044,-0.003,104.0,103.0,99.0,13.4,1505.2,332.9,-0.8,1.8,2471.389,13.29,0.101,115.6
2023-07-03T01:25:03,42.805,6.029,0.043,-0.022,-0.021,100.0,102.0,101.0,13.4,1505.2,346.9,-0.8,1.8,2471.346,13.29,0.048,117.1
2023-07-03T01:28:03,42.805,6.029,0.055,-0.027,-0.014,103.0,101.0,101.0,13.4,1505.2,348.2,-0.7,1.8,2471.357,13.29,0.061,116.1
2023-07-03T01:31:03,42.805,6.029,0.035,-0.037,-0.024,102.0,102.0,100.0,13.4,1505.2,343.3,-0.8,1.8,2471.36,13.29,0.05,136.6
2023-07-03T01:34:03,42.805,6.029,0.049,-0.038,-0.027,103.0,101.0,100.0,13.4,1505.2,338.6,-0.7,1.8,2471.352,13.29,0.062,127.8
2023-07-03T01:37:03,42.805,6.029,0.073,-0.016,0.003,101.0,103.0,100.0,13.4,1505.2,331.3,-0.8,1.8,2471.374,13.29,0.074,102.4
2023-07-03T01:40:03,42.805,6.029,0.062,-0.025,0.007,103.0,100.0,102.0,13.3,1505.2,347.4,-0.8,1.8,2471.317,13.29,0.066,112.0
2023-07-03T01:43:03,42.805,6.029,0.067,-0.038,-0.028,101.0,102.0,101.0,13.4,1505.2,339.7,-0.8,1.8,2471.384,13.29,0.077,119.6
2023-07-03T01:46:03,42.805,6.029,0.057,-0.031,-0.024,101.0,103.0,101.0,13.4,1505.2,347.7,-0.7,1.8,2471.355,13.29,0.064,118.5
2023-07-03T01:49:03,42.805,6.029,0.016,0.006,-0.01,101.0,102.0,101.0,13.4,1505.2,339.5,-0.7,1.8,2471.364,13.29,0.017,69.4
2023-07-03T01:52:03,42.805,6.029,0.074,-0.022,0.001,102.0,104.0,100.0,13.4,1505.2,323.5,-0.7,1.8,2471.377,13.29,0.077,106.6
2023-07-03T01:55:03,42.805,6.029,0.053,-0.042,-0.043,103.0,102.0,101.0,13.4,1505.2,343.4,-0.7,1.8,2471.325,13.29,0.067,128.4
2023-07-03T01:58:03,42.805,6.029,0.065,-0.015,-0.018,102.0,102.0,100.0,13.4,1505.2,328.5,-0.8,1.8,2471.338,13.29,0.066,103.0
2023-07-03T02:04:03,42.805,6.029,0.052,-0.013,-0.011,101.0,103.0,101.0,13.3,1505.2,330.3,-0.8,1.8,2471.402,13.28,0.053,104.0
2023-07-03T02:07:03,42.805,6.029,0.062,-0.009,0.011,102.0,102.0,101.0,13.4,1505.2,338.8,-0.7,1.8,2471.391,13.28,0.062,98.3
2023-07-03T02:10:03,42.805,6.029,0.026,-0.01,-0.023,102.0,103.0,101.0,13.3,1505.2,344.2,-0.8,1.8,2471.417,13.28,0.027,111.0
2023-07-03T02:13:03,42.805,6.029,0.059,-0.033,0.0,102.0,105.0,101.0,13.4,1505.2,338.7,-0.7,1.8,2471.408,13.28,0.067,119.2
2023-07-03T02:16:03,42.805,6.029,0.081,-0.038,-0.023,102.0,102.0,101.0,13.4,1505.2,329.4,-0.8,1.8,2471.375,13.28,0.089,115.1
2023-07-03T02:19:03,42.805,6.029,0.051,-0.021,0.0,101.0,101.0,101.0,13.4,1505.2,330.7,-0.7,1.8,2471.358,13.29,0.055,112.4
2023-07-03T02:22:03,42.805,6.029,0.073,-0.033,0.001,101.0,103.0,100.0,13.4,1505.2,334.4,-0.7,1.8,2471.368,13.29,0.08,114.3
2023-07-03T02:25:03,42.805,6.029,0.05,-0.022,-0.035,103.0,101.0,99.0,13.4,1505.2,343.5,-0.8,1.8,2471.377,13.29,0.054,113.7
2023-07-03T02:28:03,42.805,6.029,0.057,-0.036,-0.017,102.0,102.0,99.0,13.3,1505.2,347.4,-0.8,1.8,2471.331,13.29,0.067,122.3
2023-07-03T02:31:03,42.805,6.029,0.048,-0.036,-0.007,101.0,102.0,101.0,13.4,1505.2,353.1,-0.8,1.8,2471.324,13.29,0.06,126.9
2023-07-03T02:34:03,42.805,6.029,0.06,-0.019,-0.008,102.0,102.0,101.0,13.4,1505.2,322.9,-0.7,1.8,2471.371,13.29,0.062,107.6
2023-07-03T02:37:03,42.805,6.029,0.06,-0.057,-0.022,101.0,102.0,101.0,13.4,1505.2,341.9,-0.7,1.8,2471.375,13.29,0.082,133.5
2023-07-03T02:40:03,42.805,6.029,0.047,-0.006,-0.011,101.0,102.0,101.0,13.3,1505.2,334.3,-0.8,1.8,2471.349,13.29,0.047,97.3
2023-07-03T02:43:03,42.805,6.029,0.058,-0.004,-0.009,101.0,103.0,102.0,13.4,1505.2,331.5,-0.7,1.8,2471.408,13.29,0.058,93.9
2023-07-03T02:46:03,42.805,6.029,0.059,-0.005,0.026,101.0,102.0,101.0,13.4,1505.2,340.2,-0.7,1.8,2471.372,13.29,0.059,94.8
2023-07-03T02:49:03,42.805,6.029,0.047,-0.001,-0.008,102.0,102.0,100.0,13.4,1505.2,334.3,-0.8,1.8,2471.341,13.29,0.047,91.2
2023-07-03T02:52:03,42.805,6.029,0.103,-0.088,-0.001,101.0,102.0,101.0,13.4,1505.2,349.5,-0.8,1.8,2471.362,13.29,0.135,130.5
2023-07-03T02:55:03,42.805,6.029,0.069,-0.04,-0.001,102.0,102.0,101.0,13.4,1505.2,350.1,-0.7,1.8,2471.374,13.29,0.079,120.1
2023-07-03T02:58:03,42.805,6.029,0.052,-0.033,-0.024,102.0,103.0,101.0,13.4,1505.2,337.2,-0.7,1.8,2471.377,13.29,0.061,122.4
2023-07-03T03:04:03,42.805,6.029,0.058,-0.016,-0.005,102.0,102.0,100.0,13.3,1505.2,330.2,-0.8,1.8,2471.425,13.28,0.06,105.4
2023-07-03T03:07:03,42.805,6.029,0.031,-0.003,-0.001,102.0,102.0,101.0,13.3,1505.2,329.7,-0.7,1.8,2471.426,13.28,0.031,95.5
2023-07-03T03:10:03,42.805,6.029,0.062,0.007,0.0,102.0,103.0,101.0,13.3,1505.2,330.5,-0.8,1.8,2471.422,13.28,0.062,83.6
2023-07-03T03:13:03,42.805,6.029,0.058,-0.009,-0.025,101.0,103.0,100.0,13.4,1505.2,331.3,-0.8,1.8,2471.404,13.28,0.058,98.8
2023-07-03T03:16:03,42.805,6.029,0.062,-0.052,-0.04,103.0,100.0,100.0,13.4,1505.2,344.9,-0.8,1.8,2471.404,13.29,0.08,130.0
2023-07-03T03:19:03,42.805,6.029,0.073,-0.013,0.02,102.0,102.0,100.0,13.3,1505.2,330.4,-0.8,1.8,2471.377,13.29,0.074,100.1
2023-07-03T03:22:03,42.805,6.029,0.066,-0.005,-0.009,103.0,103.0,100.0,13.3,1505.2,322.3,-0.8,1.8,2471.376,13.29,0.066,94.3
2023-07-03T03:25:03,42.805,6.029,0.063,0.019,0.035,101.0,102.0,101.0,13.4,1505.2,327.1,-0.7,1.8,2471.394,13.29,0.065,73.2
2023-07-03T03:28:03,42.805,6.029,0.071,-0.016,-0.01,102.0,102.0,101.0,13.4,1505.2,342.3,-0.8,1.8,2471.362,13.29,0.072,102.7
2023-07-03T03:31:03,42.805,6.029,0.062,-0.019,-0.017,102.0,102.0,100.0,13.4,1505.2,321.3,-0.8,1.8,2471.376,13.29,0.064,107.0
2023-07-03T03:34:03,42.805,6.029,0.062,-0.055,-0.029,101.0,102.0,101.0,13.3,1505.2,343.3,-0.7,1.8,2471.369,13.29,0.082,131.6
2023-07-03T03:37:03,42.805,6.029,0.049,-0.023,-0.027,102.0,102.0,100.0,13.3,1505.2,331.7,-0.8,1.8,2471.372,13.29,0.054,115.1
2023-07-03T03:40:03,42.805,6.029,0.097,-0.007,0.045,102.0,102.0,100.0,13.3,1505.2,329.2,-0.7,1.8,2471.392,13.29,0.097,94.1
2023-07-03T03:43:03,42.805,6.029,0.044,-0.017,0.001,101.0,102.0,101.0,13.4,1505.2,332.4,-0.7,1.8,2471.367,13.29,0.047,111.1
2023-07-03T03:46:03,42.805,6.029,0.073,0.005,0.024,101.0,103.0,101.0,13.4,1505.2,327.0,-0.8,1.8,2471.387,13.29,0.073,86.1
2023-07-03T03:49:03,42.805,6.029,0.053,-0.007,-0.01,102.0,102.0,101.0,13.3,1505.2,325.7,-0.7,1.8,2471.379,13.29,0.053,97.5
2023-07-03T03:52:03,42.805,6.029,0.065,-0.009,0.019,102.0,102.0,101.0,13.4,1505.2,331.9,-0.8,1.8,2471.392,13.29,0.065,97.9
2023-07-03T03:55:03,42.805,6.029,0.069,-0.023,0.003,101.0,102.0,101.0,13.3,1505.2,332.5,-0.8,1.8,2471.371,13.29,0.072,108.4
2023-07-03T03:58:03,42.805,6.029,0.048,-0.017,-0.015,102.0,103.0,101.0,13.3,1505.2,348.9,-0.8,1.8,2471.388,13.29,0.05,109.5
2023-07-03T04:04:03,42.805,6.029,0.065,-0.023,0.013,101.0,102.0,101.0,13.4,1505.2,332.1,-0.8,1.8,2471.387,13.28,0.068,109.5
2023-07-03T04:07:03,42.805,6.029,0.054,-0.041,-0.023,102.0,102.0,101.0,13.4,1505.2,327.6,-0.8,1.8,2471.431,13.28,0.067,127.2
2023-07-03T04:10:03,42.805,6.029,0.081,-0.021,-0.017,101.0,102.0,101.0,13.4,1505.2,328.7,-0.8,1.8,2471.429,13.28,0.083,104.5
2023-07-03T04:13:03,42.805,6.029,0.062,-0.012,-0.008,102.0,102.0,101.0,13.4,1505.2,322.9,-0.8,1.8,2471.441,13.28,0.063,101.0
2023-07-03T04:16:03,42.805,6.029,0.07,-0.024,-0.004,102.0,102.0,101.0,13.3,1505.2,331.2,-0.8,1.8,2471.438,13.29,0.073,108.9
2023-07-03T04:19:03,42.805,6.029,0.028,-0.049,-0.029,102.0,103.0,101.0,13.3,1505.2,352.1,-0.8,1.8,2471.46,13.29,0.056,150.3
2023-07-03T04:22:03,42.805,6.029,0.054,-0.005,0.016,103.0,101.0,101.0,13.4,1505.2,335.0,-0.8,1.8,2471.437,13.29,0.054,95.3
2023-07-03T04:25:03,42.805,6.029,0.054,-0.011,0.001,102.0,102.0,101.0,13.4,1505.2,330.3,-0.8,1.8,2471.396,13.29,0.055,101.5
2023-07-03T04:28:03,42.805,6.029,0.052,-0.029,0.023,103.0,103.0,100.0,13.3,1505.2,347.1,-0.7,1.8,2471.425,13.29,0.059,119.1
2023-07-03T04:31:03,42.805,6.029,0.064,-0.026,0.0,101.0,102.0,101.0,13.4,1505.2,337.1,-0.8,1.8,2471.43,13.29,0.069,112.1
2023-07-03T04:34:03,42.805,6.029,0.064,-0.023,-0.004,102.0,102.0,101.0,13.3,1505.2,337.8,-0.8,1.8,2471.428,13.29,0.068,109.8
2023-07-03T04:37:03,42.805,6.029,0.067,-0.026,0.013,102.0,102.0,101.0,13.3,1505.2,328.1,-0.8,1.8,2471.425,13.29,0.071,111.2
2023-07-03T04:40:03,42.805,6.029,0.066,-0.042,-0.003,101.0,102.0,101.0,13.4,1505.2,337.1,-0.8,1.8,2471.388,13.29,0.078,122.5
2023-07-03T04:43:03,42.805,6.029,0.068,-0.008,0.018,102.0,102.0,101.0,13.3,1505.2,322.3,-0.8,1.8,2471.435,13.29,0.068,96.7
2023-07-03T04:46:03,42.805,6.029,0.069,-0.025,-0.042,102.0,101.0,102.0,13.4,1505.2,331.7,-0.8,1.8,2471.426,13.29,0.073,109.9
2023-07-03T04:49:03,42.805,6.029,0.06,-0.038,-0.025,101.0,103.0,102.0,13.3,1505.2,335.5,-0.8,1.8,2471.464,13.29,0.071,122.3
2023-07-03T04:52:03,42.805,6.029,0.065,-0.027,-0.031,102.0,103.0,101.0,13.3,1505.2,322.7,-0.8,1.8,2471.438,13.29,0.07,112.6
2023-07-03T04:55:03,42.805,6.029,0.063,-0.014,0.009,102.0,102.0,101.0,13.4,1505.2,336.9,-0.8,1.8,2471.452,13.29,0.064,102.5
2023-07-03T04:58:03,42.805,6.029,0.094,-0.006,0.02,102.0,103.0,101.0,13.3,1505.2,323.3,-0.8,1.8,2471.46,13.29,0.094,93.6
2023-07-03T05:04:03,42.805,6.029,0.054,-0.029,-0.02,102.0,102.0,101.0,13.4,1505.2,328.2,-0.8,1.8,2471.522,13.28,0.061,118.2
2023-07-03T05:07:03,42.805,6.029,0.038,-0.026,-0.031,102.0,102.0,101.0,13.4,1505.2,332.4,-0.8,1.8,2471.471,13.28,0.046,124.4
2023-07-03T05:10:03,42.805,6.029,0.053,-0.034,0.015,101.0,102.0,101.0,13.4,1505.2,349.3,-0.7,1.8,2471.476,13.28,0.062,122.7
2023-07-03T05:13:03,42.805,6.029,0.076,-0.02,0.016,103.0,100.0,102.0,13.3,1505.2,332.1,-0.8,1.8,2471.458,13.28,0.078,104.7
2023-07-03T05:16:03,42.805,6.029,0.07,0.009,0.013,101.0,103.0,101.0,13.3,1505.2,323.4,-0.7,1.8,2471.483,13.29,0.07,82.7
2023-07-03T05:19:03,42.805,6.029,0.061,-0.013,0.036,103.0,102.0,101.0,13.3,1505.2,324.7,-0.8,1.8,2471.468,13.29,0.062,102.0
2023-07-03T05:22:03,42.805,6.029,0.047,-0.037,0.016,103.0,101.0,102.0,13.4,1505.2,332.3,-0.7,1.8,2471.458,13.29,0.059,128.2
2023-07-03T05:25:03,42.805,6.029,0.072,-0.022,-0.003,103.0,102.0,101.0,13.3,1505.2,342.7,-0.8,1.8,2471.459,13.29,0.075,107.0
2023-07-03T05:28:03,42.805,6.029,0.031,-0.021,-0.032,102.0,103.0,101.0,13.4,1505.2,337.2,-0.8,1.8,2471.486,13.29,0.037,124.1
2023-07-03T05:31:03,42.805,6.029,0.039,-0.03,-0.019,102.0,102.0,102.0,13.3,1505.2,334.4,-0.8,1.8,2471.457,13.29,0.049,127.6
2023-07-03T05:34:03,42.805,6.029,0.048,-0.01,-0.034,102.0,103.0,100.0,13.3,1505.2,330.4,-0.8,1.8,2471.443,13.29,0.049,101.8
2023-07-03T05:37:03,42.805,6.029,0.043,-0.01,-0.036,102.0,102.0,102.0,13.3,1505.2,329.8,-0.7,1.8,2471.478,13.29,0.044,103.1
2023-07-03T05:40:03,42.805,6.029,0.067,-0.032,-0.021,103.0,103.0,101.0,13.3,1505.2,339.3,-0.8,1.8,2471.464,13.29,0.074,115.5
2023-07-03T05:43:03,42.805,6.029,0.055,-0.016,-0.019,102.0,102.0,101.0,13.4,1505.2,335.0,-0.8,1.8,2471.436,13.29,0.057,106.2
2023-07-03T05:46:03,42.805,6.029,0.029,-0.015,-0.014,102.0,103.0,101.0,13.4,1505.2,350.7,-0.7,1.8,2471.461,13.29,0.032,117.4
2023-07-03T05:49:03,42.805,6.029,0.062,-0.014,-0.018,102.0,103.0,101.0,13.4,1505.2,322.1,-0.7,1.8,2471.489,13.29,0.063,102.7
2023-07-03T05:52:03,42.805,6.029,0.048,-0.012,0.01,102.0,103.0,101.0,13.3,1505.2,345.7,-0.7,1.8,2471.511,13.29,0.049,104.0
2023-07-03T05:55:03,42.805,6.029,0.062,-0.034,0.0,102.0,103.0,101.0,13.4,1505.2,339.8,-0.8,1.8,2471.474,13.29,0.07,118.7
2023-07-03T05:58:03,42.805,6.029,0.019,-0.011,-0.002,103.0,103.0,102.0,13.4,1505.2,332.9,-0.8,1.8,2471.467,13.29,0.021,120.1
2023-07-03T06:04:03,42.805,6.029,0.06,-0.025,-0.008,102.0,102.0,101.0,13.3,1505.2,335.0,-0.8,1.9,2471.498,13.28,0.064,112.6
2023-07-03T06:07:02,42.805,6.029,0.04,-0.014,-0.001,103.0,103.0,101.0,13.4,1505.2,336.8,-0.8,1.8,2471.497,13.28,0.042,109.3
2023-07-03T06:10:02,42.805,6.029,0.038,-0.045,-0.017,103.0,102.0,101.0,13.3,1505.2,349.1,-0.8,1.8,2471.479,13.28,0.058,139.8
2023-07-03T06:13:03,42.805,6.029,0.032,-0.01,-0.018,101.0,102.0,101.0,13.4,1505.2,340.2,-0.7,1.8,2471.499,13.28,0.033,107.4
2023-07-03T06:16:02,42.805,6.029,0.058,-0.056,0.002,102.0,103.0,101.0,13.3,1505.2,332.5,-0.8,1.8,2471.493,13.28,0.08,134.0
2023-07-03T06:19:02,42.805,6.029,0.05,-0.011,-0.028,101.0,103.0,101.0,13.3,1505.2,324.5,-0.7,1.8,2471.458,13.29,0.051,102.4
2023-07-03T06:22:03,42.805,6.029,0.061,-0.012,-0.012,103.0,101.0,101.0,13.4,1505.2,321.6,-0.8,1.8,2471.454,13.29,0.062,101.1
2023-07-03T06:25:03,42.805,6.029,0.046,-0.009,-0.002,102.0,102.0,102.0,13.3,1505.2,332.1,-0.8,1.8,2471.496,13.29,0.046,101.1
2023-07-03T06:28:03,42.805,6.029,0.067,-0.014,0.01,103.0,103.0,101.0,13.3,1505.2,334.8,-0.7,1.8,2471.482,13.29,0.068,101.8
2023-07-03T06:31:02,42.805,6.029,0.052,-0.019,0.003,102.0,102.0,102.0,13.4,1505.2,342.2,-0.8,1.8,2471.496,13.29,0.055,110.1
2023-07-03T06:34:02,42.805,6.029,0.053,-0.001,0.008,102.0,102.0,101.0,13.4,1505.2,329.2,-0.8,1.8,2471.483,13.29,0.053,91.1
2023-07-03T06:37:02,42.805,6.029,0.052,-0.03,0.002,102.0,103.0,100.0,13.4,1505.2,339.3,-0.8,1.8,2471.473,13.29,0.06,120.0
2023-07-03T06:40:02,42.805,6.029,0.059,-0.016,0.007,101.0,102.0,102.0,13.4,1505.2,346.8,-0.8,1.8,2471.465,13.29,0.061,105.2
2023-07-03T06:43:02,42.805,6.029,0.055,-0.049,-0.009,102.0,103.0,101.0,13.4,1505.2,348.9,-0.8,1.8,2471.453,13.29,0.073,131.7
2023-07-03T06:46:02,42.805,6.029,0.046,-0.054,-0.006,102.0,101.0,101.0,13.3,1505.2,351.0,-0.8,1.8,2471.475,13.29,0.07,139.6
2023-07-03T06:49:02,42.805,6.029,0.05,-0.031,-0.011,102.0,102.0,101.0,13.4,1505.2,340.4,-0.8,1.8,2471.44,13.29,0.058,121.8
2023-07-03T06:52:02,42.805,6.029,0.058,-0.035,-0.015,102.0,101.0,101.0,13.4,1505.2,341.5,-0.8,1.8,2471.511,13.29,0.067,121.1
2023-07-03T06:55:02,42.805,6.029,0.053,-0.025,-0.008,102.0,103.0,101.0,13.4,1505.2,332.9,-0.7,1.8,2471.47,13.29,0.058,115.3
2023-07-03T06:58:02,42.805,6.029,0.052,-0.044,-0.018,101.0,102.0,102.0,13.3,1505.2,332.9,-0.8,1.8,2471.467,13.29,0.068,130.2
2023-07-03T07:04:02,42.805,6.029,0.031,-0.035,-0.025,102.0,102.0,101.0,13.4,1505.2,351.2,-0.8,1.8,2471.544,13.28,0.046,138.5
2023-07-03T07:07:02,42.805,6.029,0.027,-0.037,-0.05,102.0,102.0,101.0,13.4,1505.2,347.5,-0.8,1.8,2471.477,13.28,0.045,143.9
2023-07-03T07:10:02,42.805,6.029,0.057,-0.01,-0.018,102.0,101.0,101.0,13.4,1505.2,324.0,-0.7,1.8,2471.521,13.28,0.057,99.9
2023-07-03T07:13:03,42.805,6.029,0.066,-0.003,0.018,102.0,102.0,101.0,13.4,1505.2,326.6,-0.8,1.8,2471.502,13.28,0.066,92.6
2023-07-03T07:16:02,42.805,6.029,0.034,0.001,-0.036,101.0,102.0,100.0,13.4,1505.2,338.3,-0.7,1.8,2471.482,13.29,0.034,88.3
2023-07-03T07:19:02,42.805,6.029,0.057,-0.017,-0.027,102.0,102.0,102.0,13.3,1505.2,326.5,-0.8,1.8,2471.478,13.29,0.059,106.6
2023-07-03T07:22:02,42.805,6.029,0.037,-0.038,-0.018,102.0,101.0,101.0,13.4,1505.2,346.5,-0.7,1.8,2471.497,13.29,0.053,135.8
2023-07-03T07:25:02,42.805,6.029,0.035,-0.012,-0.009,101.0,101.0,102.0,13.4,1505.2,331.3,-0.8,1.8,2471.494,13.29,0.037,108.9
2023-07-03T07:28:02,42.805,6.029,0.072,-0.008,0.01,102.0,102.0,101.0,13.4,1505.2,321.3,-0.8,1.8,2471.444,13.29,0.072,96.3
2023-07-03T07:31:02,42.805,6.029,0.066,-0.031,-0.021,102.0,101.0,101.0,13.4,1505.2,326.3,-0.8,1.8,2471.488,13.29,0.072,115.2
2023-07-03T07:34:02,42.805,6.029,0.069,-0.028,-0.008,102.0,102.0,101.0,13.4,1505.2,332.9,-0.8,1.8,2471.426,13.29,0.074,112.1
2023-07-03T07:37:02,42.805,6.029,0.051,-0.029,-0.027,102.0,101.0,100.0,13.4,1505.2,336.1,-0.8,1.8,2471.433,13.29,0.058,119.6
2023-07-03T07:40:02,42.805,6.029,0.064,-0.047,-0.024,102.0,101.0,101.0,13.3,1505.2,335.6,-0.8,1.8,2471.462,13.29,0.079,126.3
2023-07-03T07:43:02,42.805,6.029,0.06,-0.043,0.005,102.0,101.0,101.0,13.3,1505.2,340.0,-0.8,1.8,2471.477,13.29,0.073,125.6
2023-07-03T07:46:03,42.805,6.029,0.056,-0.042,-0.007,101.0,101.0,101.0,13.4,1505.2,343.4,-0.8,1.8,2471.465,13.29,0.069,126.9
2023-07-03T07:49:02,42.805,6.029,0.049,-0.058,-0.044,102.0,101.0,101.0,13.4,1505.2,341.5,-0.8,1.8,2471.417,13.29,0.075,139.8
2023-07-03T07:52:02,42.805,6.029,0.051,-0.032,-0.01,102.0,102.0,101.0,13.4,1505.2,337.7,-0.7,1.8,2471.457,13.29,0.06,122.1
2023-07-03T07:55:02,42.805,6.029,0.046,0.003,0.023,102.0,102.0,102.0,13.3,1505.2,331.2,-0.8,1.9,2471.431,13.29,0.046,86.3
2023-07-03T07:58:03,42.805,6.029,0.047,-0.032,-0.014,101.0,102.0,101.0,13.3,1505.2,344.5,-0.8,1.8,2471.441,13.29,0.056,124.2
2023-07-03T08:04:02,42.805,6.029,0.063,-0.022,-0.011,101.0,102.0,101.0,13.4,1505.2,338.2,-0.8,1.8,2471.483,13.28,0.066,109.2
2023-07-03T08:07:02,42.805,6.029,0.066,-0.038,0.008,103.0,103.0,101.0,13.3,1505.2,348.9,-0.8,1.8,2471.477,13.28,0.076,119.9
2023-07-03T08:10:03,42.805,6.029,0.083,-0.01,-0.006,102.0,102.0,100.0,13.4,1505.2,321.0,-0.8,1.8,2471.484,13.28,0.083,96.9
2023-07-03T08:13:03,42.805,6.029,0.047,-0.06,-0.023,101.0,102.0,100.0,13.4,1505.2,341.9,-0.8,1.8,2471.467,13.28,0.076,141.9
2023-07-03T08:16:03,42.805,6.029,0.04,0.005,-0.031,102.0,102.0,102.0,13.3,1505.2,336.0,-0.8,1.8,2471.46,13.28,0.04,82.9
2023-07-03T08:19:03,42.805,6.029,0.082,-0.031,-0.02,102.0,102.0,100.0,13.4,1505.2,324.0,-0.8,1.8,2471.45,13.28,0.087,110.7
2023-07-03T08:22:02,42.805,6.029,0.083,-0.02,0.006,103.0,101.0,101.0,13.4,1505.2,324.2,-0.7,1.8,2471.477,13.29,0.085,103.5
2023-07-03T08:25:03,42.805,6.029,0.064,-0.038,-0.053,101.0,101.0,101.0,13.4,1505.2,332.9,-0.8,1.8,2471.416,13.29,0.074,120.7
2023-07-03T08:28:03,42.805,6.029,0.06,-0.041,0.001,102.0,102.0,101.0,13.4,1505.2,347.5,-0.8,1.8,2471.455,13.29,0.072,124.3
2023-07-03T08:31:03,42.805,6.029,0.034,-0.036,-0.016,103.0,102.0,100.0,13.4,1505.2,342.2,-0.8,1.8,2471.428,13.29,0.049,136.6
2023-07-03T08:34:03,42.805,6.029,0.043,-0.056,-0.022,102.0,102.0,101.0,13.4,1505.2,346.2,-0.8,1.8,2471.42,13.29,0.07,142.5
2023-07-03T08:37:02,42.805,6.029,0.088,-0.022,0.001,102.0,102.0,101.0,13.3,1505.2,323.8,-0.7,1.8,2471.476,13.29,0.09,104.0
2023-07-03T08:40:03,42.805,6.029,0.059,-0.034,0.015,102.0,102.0,101.0,13.3,1505.2,329.9,-0.8,1.9,2471.425,13.29,0.068,120.0
2023-07-03T08:43:03,42.805,6.029,0.069,-0.045,-0.022,102.0,101.0,101.0,13.4,1505.2,343.8,-0.7,1.8,2471.408,13.29,0.082,123.1
2023-07-03T08:46:03,42.805,6.029,0.062,-0.032,0.001,101.0,102.0,101.0,13.4,1505.2,340.0,-0.8,1.8,2471.454,13.29,0.069,117.3
2023-07-03T08:49:03,42.805,6.029,0.06,-0.018,0.0,102.0,102.0,101.0,13.4,1505.2,326.0,-0.8,1.8,2471.38,13.29,0.062,106.7
2023-07-03T08:52:02,42.805,6.029,0.057,-0.004,-0.001,101.0,102.0,101.0,13.4,1505.2,326.5,-0.7,1.8,2471.417,13.29,0.057,94.0
2023-07-03T08:55:03,42.805,6.029,0.049,-0.024,-0.015,102.0,102.0,101.0,13.4,1505.2,329.5,-0.8,1.8,2471.409,13.29,0.054,116.1
2023-07-03T08:58:03,42.805,6.029,0.047,-0.046,-0.039,102.0,102.0,101.0,13.4,1505.2,342.3,-0.7,1.8,2471.423,13.29,0.065,134.4
2023-07-03T09:04:02,42.805,6.029,0.044,-0.036,-0.024,102.0,102.0,101.0,13.4,1505.2,336.0,-0.8,1.8,2471.452,13.28,0.056,129.3
2023-07-03T09:07:02,42.805,6.029,0.037,-0.039,-0.02,102.0,102.0,101.0,13.4,1505.2,324.1,-0.8,1.8,2471.405,13.28,0.053,136.5
2023-07-03T09:10:03,42.805,6.029,0.05,-0.041,-0.013,102.0,102.0,101.0,13.4,1505.2,333.0,-0.7,1.8,2471.423,13.28,0.064,129.3
2023-07-03T09:13:03,42.805,6.029,0.043,-0.041,-0.013,102.0,102.0,101.0,13.3,1505.2,344.2,-0.7,1.8,2471.431,13.28,0.059,133.6
2023-07-03T09:16:03,42.805,6.029,0.053,-0.016,-0.053,102.0,101.0,101.0,13.4,1505.2,329.5,-0.8,1.8,2471.439,13.28,0.055,106.8
2023-07-03T09:19:03,42.805,6.029,0.064,-0.056,-0.031,102.0,101.0,101.0,13.4,1505.2,334.2,-0.8,1.8,2471.414,13.29,0.085,131.2
2023-07-03T09:22:02,42.805,6.029,0.042,-0.028,-0.021,102.0,101.0,102.0,13.3,1505.2,339.8,-0.7,1.8,2471.379,13.29,0.05,123.7
2023-07-03T09:25:03,42.805,6.029,0.043,-0.021,-0.011,103.0,103.0,100.0,13.4,1505.2,329.8,-0.8,1.8,2471.414,13.29,0.047,116.0
2023-07-03T09:28:03,42.805,6.029,0.047,-0.048,-0.039,103.0,102.0,101.0,13.3,1505.2,346.8,-0.8,1.8,2471.383,13.29,0.067,135.6
2023-07-03T09:31:03,42.805,6.029,0.065,-0.003,-0.01,102.0,103.0,101.0,13.3,1505.2,337.8,-0.8,1.8,2471.415,13.29,0.065,92.6
2023-07-03T09:34:03,42.805,6.029,0.05,-0.033,-0.02,102.0,102.0,101.0,13.4,1505.2,350.7,-0.8,1.8,2471.411,13.29,0.059,123.4
2023-07-03T09:37:02,42.805,6.029,0.059,-0.026,-0.008,101.0,103.0,101.0,13.4,1505.2,326.8,-0.7,1.8,2471.384,13.29,0.064,113.8
2023-07-03T09:40:03,42.805,6.029,0.082,-0.027,-0.005,102.0,101.0,102.0,13.3,1505.2,332.6,-0.7,1.8,2471.376,13.29,0.086,108.2
2023-07-03T09:43:03,42.805,6.029,0.049,-0.028,-0.016,102.0,101.0,101.0,13.4,1505.2,342.5,-0.8,1.8,2471.346,13.29,0.056,119.7
2023-07-03T09:46:03,42.805,6.029,0.038,-0.023,-0.034,103.0,101.0,101.0,13.4,1505.2,348.9,-0.8,1.8,2471.406,13.29,0.044,121.2
2023-07-03T09:49:02,42.805,6.029,0.055,-0.037,-0.006,102.0,102.0,101.0,13.4,1505.2,341.5,-0.8,1.8,2471.407,13.29,0.066,123.9
2023-07-03T09:52:02,42.805,6.029,0.059,-0.005,-0.005,103.0,102.0,102.0,13.3,1505.2,329.9,-0.8,1.8,2471.352,13.29,0.059,94.8
2023-07-03T09:55:03,42.805,6.029,0.032,-0.028,-0.024,104.0,101.0,101.0,13.4,1505.2,352.4,-0.7,1.8,2471.381,13.29,0.042,131.2